DW4032 Weather Reports


Display with metric or nautical units.
time (UTC)temp
F
wind
direction
speed
MPH
gust
MPH
rain 1hr
in
rain 24hr
in
rain mn
in
humidity
%
barometer
mb
20260506033045 50 9 1.0 5.0 0.00 0.00 0.00 82 1008.8
20260506031551 50 345 1.0 7.0 0.00 0.00 0.00 81 1008.8
20260506030043 50 18 1.0 4.0 0.00 0.00 0.00 82 1009.0
20260506024548 50 355 3.0 6.0 0.00 0.00 0.00 82 1009.1
20260506023040 49 5 1.0 7.0 0.00 0.00 0.00 83 1009.1
20260506021538 49 19 1.0 4.0 0.00 0.00 0.00 83 1009.1
20260506020038 49 335 1.0 3.0 0.00 0.00 0.00 84 1009.2
20260506014537 49 360 1.0 5.0 0.00 0.00 0.00 84 1009.3
20260506013041 49 23 2.0 7.0 0.00 0.00 0.00 84 1009.3
20260506011541 49 18 2.0 7.0 0.00 0.00 0.00 83 1009.3
20260506010050 49 14 2.0 6.0 0.00 0.00 0.00 83 1009.3
20260506004532 49 355 2.0 9.0 0.00 0.00 0.00 83 1009.5
20260506003028 49 17 2.0 6.0 0.00 0.00 0.00 82 1009.7
20260506001529 49 15 2.0 8.0 0.00 0.00 0.00 82 1009.8
20260506000024 48 355 2.0 5.0 0.00 0.00 0.00 82 1009.9
20260505234523 48 9 1.0 5.0 0.00 0.00 0.00 82 1010.0
20260505233021 48 360 1.0 5.0 0.00 0.00 0.00 81 1010.1
20260505231520 48 17 0.0 4.0 0.00 0.00 0.00 81 1010.1
20260505230025 48 15 1.0 3.0 0.00 0.00 0.00 81 1010.2
20260505224517 49 15 1.0 3.0 0.00 0.00 0.00 80 1010.2
20260505223017 49 46 1.0 8.0 0.00 0.00 0.00 79 1010.2
20260505221513 49 360 1.0 4.0 0.00 0.00 0.00 79 1010.4
20260505220010 49 21 1.0 5.0 0.00 0.00 0.00 79 1010.6
20260505214510 50 360 1.0 7.0 0.00 0.00 0.00 78 1010.6
20260505213019 50 25 1.0 6.0 0.00 0.00 0.00 78 1010.6
20260505211507 50 51 1.0 6.0 0.00 0.00 0.00 78 1010.7
20260505210007 50 360 1.0 7.0 0.00 0.00 0.00 78 1010.7
20260505204506 51 44 2.0 6.0 0.00 0.00 0.00 78 1010.7
20260505203006 51 40 2.0 5.0 0.00 0.00 0.00 78 1010.8
20260505201506 51 78 2.0 8.0 0.00 0.00 0.00 77 1010.7
20260505200006 51 350 2.0 12.0 0.00 0.00 0.00 77 1010.7
20260505194504 52 61 5.0 11.0 0.00 0.00 0.00 77 1010.6
20260505193004 52 25 4.0 14.0 0.00 0.00 0.00 76 1010.3
20260505191503 53 31 3.0 14.0 0.00 0.00 0.00 75 1010.1
20260505190003 53 18 5.0 12.0 0.00 0.00 0.00 75 1010.0
20260505184502 54 74 5.0 13.0 0.00 0.00 0.00 74 1009.9
20260505183001 54 19 4.0 12.0 0.00 0.00 0.00 73 1009.8
20260505181502 55 336 3.0 11.0 0.00 0.00 0.00 73 1009.7
20260505180100 55 38 6.0 13.0 0.00 0.00 0.00 72 1009.8
20260505174600 56 45 5.0 12.0 0.00 0.00 0.00 71 1009.8
20260505173107 57 349 3.0 8.0 0.00 0.00 0.00 72 1009.8
20260505171602 57 11 5.0 11.0 0.00 0.00 0.00 69 1009.8
20260505170058 57 19 3.0 6.0 0.00 0.00 0.00 74 1009.8
20260505164558 56 347 5.0 9.0 0.00 0.00 0.00 73 1009.9
20260505163057 56 342 4.0 10.0 0.00 0.00 0.00 73 1009.9
20260505161619 56 346 4.0 11.0 0.00 0.00 0.00 73 1009.9
20260505153055 57 19 4.0 7.0 0.00 0.00 0.00 71 1009.9
20260505151611 58 340 4.0 10.0 0.00 0.00 0.00 70 1010.0
20260505124549 62 28 5.0 14.0 0.00 0.00 0.00 62 1010.4
20260505123046 63 86 5.0 14.0 0.00 0.00 0.00 59 1010.5
20260505121544 61 26 5.0 10.0 0.00 0.00 0.00 63 1010.4
20260505120104 61 12 5.0 12.0 0.00 0.00 0.00 61 1010.5
20260505114543 62 70 8.0 14.0 0.00 0.00 0.00 63 1010.5
20260505113045 61 61 6.0 16.0 0.00 0.00 0.00 63 1010.7
20260505111538 59 44 5.0 12.0 0.00 0.00 0.00 64 1010.8
20260505101530 58 101 6.0 13.0 0.00 0.00 0.00 67 1011.3
20260505100029 58 11 3.0 15.0 0.00 0.00 0.00 69 1011.4
20260505094527 57 32 5.0 12.0 0.00 0.00 0.00 69 1011.5
20260505093026 58 79 8.0 14.0 0.00 0.00 0.00 69 1011.4
20260505091528 56 57 4.0 11.0 0.00 0.00 0.00 71 1011.5
20260505090036 55 36 5.0 14.0 0.00 0.00 0.00 72 1011.5
20260505084517 54 34 5.0 12.0 0.00 0.00 0.00 75 1011.5
20260505083016 54 23 4.0 11.0 0.00 0.00 0.00 76 1011.5
20260505081515 54 90 7.0 14.0 0.00 0.00 0.00 77 1011.5
20260505080012 53 34 4.0 17.0 0.00 0.00 0.00 79 1011.4
20260505074511 52 69 6.0 12.0 0.00 0.00 0.00 82 1011.5
20260505073014 52 74 4.0 9.0 0.00 0.00 0.00 81 1011.7
20260505071515 52 17 3.0 6.0 0.00 0.00 0.00 83 1011.7
20260505070007 51 13 3.0 9.0 0.00 0.00 0.00 83 1011.8
20260505064518 51 24 3.0 7.0 0.00 0.00 0.00 85 1011.8
20260505063006 51 41 3.0 7.0 0.00 0.00 0.00 86 1012.0
20260505061512 51 29 4.0 11.0 0.00 0.00 0.00 87 1012.0
20260505060006 51 46 2.0 7.0 0.00 0.00 0.00 88 1012.1
20260505054505 50 28 2.0 6.0 0.00 0.00 0.00 88 1012.1
20260505053005 50 40 3.0 5.0 0.00 0.00 0.00 88 1012.1
20260505051505 50 33 2.0 5.0 0.00 0.00 0.00 88 1011.9
20260505041503 50 40 1.0 9.0 0.00 0.00 0.00 88 1011.8
20260505040101 50 51 2.0 7.0 0.00 0.00 0.00 89 1011.8
20260505034600 50 51 5.0 15.0 0.00 0.00 0.00 89 1011.9